Orbital Elements at Epoch 2459200.5 (2020-Dec-17.0) TDB
Reference: JPL 20 (heliocentric ecliptic J2000)
Element | Value | Uncertainty (1-sigma) | Units |
e | .190617756119074 | 3.2581e-08 | |
a | 2.233571587671747 | 8.0899e-09 | au |
q | 1.807813183498441 | 7.3458e-08 | au |
i | 5.107854394279919 | 3.8828e-06 | deg |
node | 46.579906793909 | 4.223e-05 | deg |
peri | 233.2052737834103 | 4.3438e-05 | deg |
M | 138.9945186021764 | 9.6638e-06 | deg |
tp | 2458729.746655065335 (2019-Sep-03.24665507) | 3.2342e-05 | TDB |
period | 1219.265377374571 3.34 | 6.6242e-06 1.814e-08 | d yr |
n | .2952597577856131 | 1.6041e-09 | deg/d |
Q | 2.659329991845053 | 9.632e-09 | au |
|
| | Orbit Determination Parameters
Additional Information
|